Time,TemperatureF,DewpointF,PressureIn,WindDirection,WindDirectionDegrees,WindSpeedMPH,WindSpeedGustMPH,Humidity,HourlyPrecipIn,Conditions,Clouds,dailyrainin,SolarRadiationWatts/m^2,SoftwareType,DateUTC
2013-12-05 13:00:00,4.8,1.3,30.26,WSW,257,9.0,10.0,85,0.00,,,0.00,380,Wunderground v.1.15,2013-12-05 19:00:00,
2013-12-05 13:05:00,4.8,1.0,30.26,WSW,251,9.0,10.0,84,0.00,,,0.00,374,Wunderground v.1.15,2013-12-05 19:05:00,
2013-12-05 13:10:00,4.9,1.1,30.27,WSW,238,9.0,9.0,84,0.00,,,0.00,371,Wunderground v.1.15,2013-12-05 19:10:00,
2013-12-05 13:15:00,4.9,1.4,30.27,West,266,9.0,9.0,85,0.00,,,0.00,366,Wunderground v.1.15,2013-12-05 19:15:00,
2013-12-05 13:20:00,4.8,1.3,30.27,NW,307,9.0,10.0,85,0.00,,,0.00,360,Wunderground v.1.15,2013-12-05 19:20:00,
2013-12-05 13:25:00,4.9,1.4,30.26,West,261,8.0,10.0,85,0.00,,,0.00,355,Wunderground v.1.15,2013-12-05 19:25:00,
2013-12-05 13:30:00,4.9,1.4,30.26,WSW,254,9.0,9.0,85,0.00,,,0.00,345,Wunderground v.1.15,2013-12-05 19:30:00,
2013-12-05 13:35:00,4.9,1.4,30.26,WSW,238,9.0,9.0,85,0.00,,,0.00,341,Wunderground v.1.15,2013-12-05 19:35:00,
2013-12-05 13:40:00,4.9,1.4,30.26,West,265,8.0,8.0,85,0.00,,,0.00,330,Wunderground v.1.15,2013-12-05 19:40:00,
2013-12-05 13:45:00,4.9,1.4,30.26,WSW,251,8.0,10.0,85,0.00,,,0.00,323,Wunderground v.1.15,2013-12-05 19:45:00,
2013-12-05 13:50:00,4.7,1.2,30.26,West,271,8.0,10.0,85,0.00,,,0.00,309,Wunderground v.1.15,2013-12-05 19:50:00,
2013-12-05 13:55:00,4.6,1.1,30.26,WNW,284,9.0,15.0,85,0.00,,,0.00,308,Wunderground v.1.15,2013-12-05 19:55:00,
2013-12-05 14:00:00,4.6,1.1,30.26,West,261,10.0,11.0,85,0.00,,,0.00,288,Wunderground v.1.15,2013-12-05 20:00:00,
2013-12-05 14:05:00,4.7,1.2,30.26,NW,311,10.0,11.0,85,0.00,,,0.00,290,Wunderground v.1.15,2013-12-05 20:05:00,
2013-12-05 14:15:00,4.6,1.1,30.26,WNW,296,9.0,10.0,85,0.00,,,0.00,269,Wunderground v.1.15,2013-12-05 20:15:00,
2013-12-05 14:25:00,4.8,1.3,30.26,West,277,8.0,10.0,85,0.00,,,0.00,250,Wunderground v.1.15,2013-12-05 20:25:00,
2013-12-05 14:30:00,4.7,1.2,30.26,West,272,8.0,8.0,85,0.00,,,0.00,230,Wunderground v.1.15,2013-12-05 20:30:00,
2013-12-05 14:35:00,4.8,1.3,30.27,West,271,8.0,9.0,85,0.00,,,0.00,216,Wunderground v.1.15,2013-12-05 20:35:00,
2013-12-05 14:40:00,4.8,1.3,30.27,WNW,286,8.0,8.0,85,0.00,,,0.00,209,Wunderground v.1.15,2013-12-05 20:40:00,
2013-12-05 14:50:00,4.9,1.6,30.27,West,277,7.0,7.0,86,0.00,,,0.00,181,Wunderground v.1.15,2013-12-05 20:50:00,
2013-12-05 14:55:00,4.8,1.3,30.26,WNW,290,6.0,7.0,85,0.00,,,0.00,167,Wunderground v.1.15,2013-12-05 20:55:00,
2013-12-05 15:00:00,4.7,1.2,30.27,West,267,7.0,7.0,85,0.00,,,0.00,155,Wunderground v.1.15,2013-12-05 21:00:00,
2013-12-05 15:05:00,4.6,1.3,30.27,NW,309,6.0,7.0,86,0.00,,,0.00,142,Wunderground v.1.15,2013-12-05 21:05:00,
2013-12-05 15:15:00,4.6,1.3,30.28,WNW,292,5.0,7.0,86,0.00,,,0.00,114,Wunderground v.1.15,2013-12-05 21:15:00,
2013-12-05 15:25:00,4.5,1.2,30.28,WNW,285,5.0,9.0,86,0.00,,,0.00,91,Wunderground v.1.15,2013-12-05 21:25:00,
2013-12-05 15:30:00,4.3,0.8,30.28,West,270,7.0,12.0,85,0.00,,,0.00,79,Wunderground v.1.15,2013-12-05 21:30:00,